Location: Fenton
(44.3980°N, 108.5746°W)
Time: 06:55:52
(UTC+00:00)

ISS - Visible Passes

Search period start: 27 January 2022 00:00
Search period end: 06 February 2022 00:00
Orbit: 413 x 422 km, 51.6° (Epoch: 27 January)

Date Brightness Start Highest point End Pass type
(mag) Time Alt. Az. Time Alt. Az. Time Alt. Az.
27 Jan -2.2 01:00:46 10° WNW 01:03:37 25° N 01:06:18 11° NE visible
27 Jan -1.2 02:38:13 10° NW 02:39:14 16° NW 02:39:14 16° NW visible
28 Jan -2.2 01:50:04 10° NW 01:52:51 23° N 01:53:09 23° NNE visible
29 Jan -2.1 01:01:51 10° NW 01:04:34 23° N 01:07:05 11° NE visible
29 Jan -1.4 02:38:48 10° NW 02:40:01 19° NW 02:40:01 19° NW visible
30 Jan -2.7 01:50:44 10° NW 01:53:44 30° NNE 01:53:58 29° NNE visible
31 Jan -2.4 01:02:36 10° NW 01:05:28 25° N 01:07:59 12° ENE visible
31 Jan -1.8 02:39:16 10° WNW 02:40:55 27° NW 02:40:55 27° NW visible
01 Feb -3.5 01:51:11 10° NW 01:54:26 50° NNE 01:54:59 44° ENE visible
02 Feb -3.0 01:03:04 10° NW 01:06:12 37° NNE 01:09:11 11° E visible
02 Feb -2.1 02:39:50 10° WNW 02:42:08 34° W 02:42:08 34° W visible
03 Feb -3.6 01:51:35 10° WNW 01:54:55 72° SSW 01:56:27 29° SE visible
04 Feb -3.8 01:03:24 10° WNW 01:06:44 72° NNE 01:10:04 10° ESE visible
04 Feb -1.2 02:40:55 10° W 02:43:10 17° SW 02:43:55 16° SSW visible
05 Feb -1.8 01:52:14 10° WNW 01:55:08 27° SW 01:58:01 10° SSE visible
